CAPE
0 0 0 0 0 0 0 0 0 0 0 0 0 0 6 39 73 1 496 764 899 953 1225 2180 1885 2029 1878 1736 1717 1699 1237 914 652 787 756 488 437 355 232 688 945 808 577 220 129 108 174 209 260
0 0 0 0 0 0 0 0 0 0 0 0 4 0 0 14 214 151 243 703 1035 1076 1324 1988 2079 2059 1858 1711 1525 1677 1452 1117 751 1035 882 792 706 401 288 658 971 894 554 201 89 114 214 165 215
0 0 0 0 0 0 0 0 0 0 0 0 0 23 63 71 465 272 297 846 1253 1406 1589 1884 2223 1965 1866 1765 1698 1680 1614 1269 888 1369 1226 1254 1014 596 301 556 1085 961 625 184 52 68 143 113 126
0 0 0 0 0 0 0 0 0 0 0 0 0 0 302 463 526 680 682 1043 1354 1658 1878 1993 2205 2011 1959 1844 1836 1752 1679 1452 1178 1425 1625 1737 1410 1012 583 594 1109 846 563 226 15 21 66 41 45
0 0 0 0 0 0 0 0 0 0 0 0 0 6 200 471 421 505 738 1109 1094 1461 1638 1929 2244 2127 2094 1941 1850 1783 1538 1292 1489 929 1870 1622 1649 1348 981 648 742 1039 835 371 26 11 7 46 150
0 0 0 0 0 0 0 0 0 0 0 0 0 29 114 507 381 262 903 934 1287 1289 1554 1878 2363 2221 2173 2119 1803 1512 1336 1189 1921 1361 1342 1737 1644 1646 1393 880 635 828 1033 619 243 52 23 33 175
0 0 0 0 0 0 0 0 0 0 0 0 0 0 121 412 499 171 671 1002 1367 1437 1562 1631 2155 2317 2241 1991 1756 1627 1731 1276 1946 1748 1421 1766 1657 1629 1457 1355 897 656 917 932 648 186 48 5 184
0 0 0 0 0 0 0 0 0 0 0 0 0 0 0 74 283 320 102 692 1222 1403 1615 1639 1821 2250 2238 2088 2091 2001 1919 1678 1996 1947 1606 1746 1363 1336 1553 1421 1379 1039 970 1111 993 570 100 67 54
0 0 0 0 0 0 0 0 0 0 0 0 0 0 0 0 342 462 171 19 580 1143 1460 1723 1802 2013 2269 2234 1863 1955 1941 1663 1672 1707 1558 1477 1361 1052 1343 1472 1306 1354 1118 1143 1020 866 90 47 73
0 0 0 0 0 0 0 0 0 0 0 0 0 0 0 0 5 433 586 410 95 460 1031 1602 1780 2000 2260 2280 2033 1626 1655 1536 1493 1805 1545 1684 1283 997 737 1187 1308 1008 1216 1007 975 958 215 41 0
0 0 0 0 0 0 0 0 0 0 0 0 0 0 0 0 0 0 0 0 0 1 59 1274 1797 1923 2006 1970 1731 1545 1470 1249 1262 1248 1461 1601 1368 1047 784 911 1293 1264 997 998 962 842 455 55 2
0 0 0 0 0 0 0 0 0 0 0 0 0 0 0 0 0 0 0 0 0 0 0 0 216 1786 2011 1886 1662 1611 1390 1324 1103 1046 1029 1161 1279 1040 816 636 582 956 1126 873 569 564 330 144 51
0 0 0 0 0 0 0 0 0 0 0 0 0 0 0 0 0 0 0 0 0 0 0 0 0 47 823 1410 1345 1327 1377 1332 1218 1068 819 791 715 818 770 717 613 519 604 788 619 317 222 146 12
0 0 0 0 0 0 0 0 0 0 0 0 0 0 0 0 0 0 0 0 0 0 0 0 0 0 0 2 121 457 673 920 1028 937 749 731 720 737 601 634 549 357 210 217 485 365 211 114 29
0 0 0 0 0 0 0 0 0 0 0 0 0 0 0 0 0 0 0 0 0 0 0 0 0 0 0 0 0 0 47 429 629 781 901 860 872 795 568 403 234 30 174 99 248 251 136 119 54
0 0 0 0 0 0 0 0 0 0 0 0 0 0 0 0 0 0 0 0 0 0 0 0 0 0 0 0 0 0 0 0 691 832 831 790 731 678 492 433 406 251 343 286 314 250 135 60 79
0 0 0 0 0 0 0 0 0 0 0 0 0 0 0 0 0 0 0 0 0 0 0 0 0 0 0 0 0 0 0 0 0 0 115 600 720 672 520 579 598 467 386 334 358 251 238 89 58
0 0 0 0 0 0 0 0 0 0 0 0 0 0 0 0 0 0 0 0 0 0 0 0 0 0 0 0 0 0 0 0 0 0 0 0 1 107 407 557 704 553 480 326 257 246 94 40 34
0 0 0 0 0 0 0 0 0 0 0 0 0 0 0 0 0 0 0 0 0 0 0 0 0 0 0 0 0 0 0 0 0 0 0 0 0 19 151 469 453 578 514 334 218 121 161 43 10
0 0 0 0 0 0 0 0 0 0 0 0 0 0 0 0 0 0 0 0 0 0 0 0 0 0 0 0 0 0 0 2 0 0 0 0 0 30 179 423 603 603 630 311 226 136 118 27 2
0 0 0 0 0 0 0 0 0 0 0 0 0 0 0 0 0 0 0 0 0 0 0 0 0 0 0 0 0 0 0 0 0 0 0 0 0 9 60 343 599 742 752 517 279 190 106 71 5
0 0 0 0 0 0 0 0 0 0 0 0 0 0 0 0 0 0 0 0 0 0 0 0 0 0 0 0 0 0 0 0 0 1 1 50 32 93 91 243 556 666 637 578 439 256 93 100 43
0 0 0 0 0 0 0 0 0 0 0 0 0 0 0 0 0 0 0 0 0 0 0 0 0 0 0 0 0 0 0 0 0 0 0 14 184 330 289 263 492 727 637 506 489 297 216 121 6
0 0 0 0 0 0 0 0 0 0 0 0 0 0 0 0 0 0 0 0 0 0 0 0 0 0 0 0 0 0 0 0 0 0 5 42 240 279 361 303 359 617 591 462 355 181 88 19 31
0 0 0 0 0 0 0 0 0 0 0 0 0 0 0 0 0 0 0 0 0 0 0 0 0 0 0 0 0 0 0 0 0 0 2 36 321 211 282 350 308 285 350 268 206 36 13 35 15
0 0 0 0 0 0 0 0 0 0 0 0 0 0 0 0 0 0 0 0 0 0 0 0 0 0 0 0 0 0 0 0 0 0 0 4 363 221 251 354 349 300 284 206 132 135 62 42 0
0 0 0 0 0 0 0 0 0 0 0 0 0 0 0 0 0 0 0 0 0 0 0 0 0 0 0 0 0 0 0 0 0 0 0 0 218 178 90 259 312 457 422 317 198 61 14 0 0
0 0 0 0 0 0 0 0 0 0 0 0 0 0 0 0 0 0 0 0 0 0 0 0 0 0 0 0 0 0 0 0 0 0 0 0 0 93 76 218 366 588 555 339 133 33 0 0 0
0 0 0 0 0 0 0 0 0 0 0 0 0 0 0 0 0 0 0 0 0 0 0 0 0 0 0 0 0 0 0 0 0 0 0 1 1 0 3 240 300 326 227 125 67 0 0 2 0
0 0 0 0 0 0 0 0 0 0 0 0 0 0 0 0 0 0 0 0 0 0 0 0 0 0 0 0 0 0 0 0 0 0 1 1 0 0 1 180 135 249 84 1 2 0 0 3 0
CIN
0 0 0 0 0 0 0 0 0 0 0 0 0 0 -156 -182 -105 -115 -292 -287 -262 -214 -148 -12 -20 -2 0 0 0 0 -4 -24 -52 -24 -23 -64 -68 -74 -87 -14 -0 0 0 -26 -49 -46 -14 -3 -0
0 0 0 0 0 0 0 0 0 0 0 0 -199 0 0 -223 -161 -198 -235 -286 -258 -229 -160 -45 -13 -3 -3 -2 -6 -0 -0 -13 -60 -9 -13 -22 -14 -48 -55 -6 0 0 -3 -44 -88 -82 -42 -29 -6
0 0 0 0 0 0 0 0 0 0 0 0 0 -250 -262 -195 -143 -177 -284 -270 -233 -189 -140 -87 -26 -28 -14 -5 -7 -1 0 -5 -27 -0 -1 0 0 -33 -66 -27 -0 0 -0 -49 -128 -100 -62 -69 -32
0 0 0 0 0 0 0 0 0 0 0 0 -20 -7 -161 -185 -132 -176 -257 -248 -188 -126 -72 -46 -8 -9 -4 -3 -0 -0 0 -1 -4 -1 0 0 0 -0 -32 -18 0 0 -5 -47 -165 -168 -95 -78 -71
0 0 0 0 0 0 0 0 0 0 0 0 0 -99 -160 -146 -230 -241 -236 -227 -211 -186 -139 -58 -5 -0 0 -0 0 0 -0 -7 -2 -31 -0 -0 0 0 -4 -8 -3 -0 -0 -18 -145 -162 -157 -65 -17
0 0 0 0 0 0 0 0 0 0 0 0 0 -325 -209 -161 -164 -239 -210 -195 -180 -156 -126 -65 -4 -2 -2 -0 -6 -19 -24 -28 0 -9 -6 0 0 0 0 -9 -24 -5 -2 -7 -33 -108 -106 -36 -9
0 0 0 0 0 0 0 0 0 0 0 0 0 0 -259 -109 -137 -273 -198 -175 -138 -125 -101 -84 -33 -11 -4 -10 -17 -15 -5 -23 -0 -0 -5 -0 -0 -0 -0 0 -8 -24 -0 0 -5 -34 -66 -107 -3
0 0 0 0 0 0 0 0 0 0 0 0 0 0 0 -280 -170 -241 -321 -180 -131 -114 -88 -77 -58 -16 -11 -16 -5 -1 -2 -7 -1 -0 -4 -1 -5 -3 -0 -0 0 0 -0 0 0 -9 -20 -18 -33
0 0 0 0 0 0 0 0 0 0 0 0 0 0 0 0 -151 -152 -242 -389 -159 -108 -96 -77 -59 -36 -11 -12 -25 -6 -3 -7 -5 -3 -4 -3 -6 -16 -5 -0 -2 0 0 0 0 -0 -20 -12 -23
0 0 0 0 0 0 0 0 0 0 0 0 0 0 0 0 -10 -61 -76 -135 -232 -149 -95 -85 -70 -42 -12 -9 -24 -26 -16 -12 -9 -3 -8 -2 -10 -22 -35 -5 -2 -6 -0 -0 0 -0 -13 -15 0
0 0 0 0 0 0 0 0 0 0 0 0 0 0 0 0 0 0 0 0 -7 -22 -25 -105 -69 -56 -34 -39 -42 -43 -38 -33 -24 -16 -9 -6 -7 -15 -22 -11 -2 -1 -3 -2 -1 -3 -12 -34 -12
0 0 0 0 0 0 0 0 0 0 0 0 0 0 0 0 0 0 0 0 0 0 0 0 -204 -58 -40 -44 -54 -37 -37 -36 -35 -52 -38 -21 -8 -16 -26 -35 -29 -8 -4 -8 -29 -26 -29 -28 -47
0 0 0 0 0 0 0 0 0 0 0 0 0 0 0 0 0 0 0 0 0 0 0 0 0 -161 -113 -58 -71 -79 -71 -50 -45 -55 -67 -41 -30 -33 -44 -37 -31 -34 -26 -17 -30 -52 -41 -35 -54
0 0 0 0 0 0 0 0 0 0 0 0 0 0 0 0 0 0 0 0 0 0 0 0 0 0 0 -5 -108 -135 -109 -100 -89 -80 -83 -61 -50 -48 -65 -54 -44 -58 -84 -62 -36 -41 -46 -52 -65
0 0 0 0 0 0 0 0 0 0 0 0 0 0 0 0 0 0 0 0 0 0 0 0 0 0 0 0 0 0 -185 -130 -111 -108 -98 -92 -71 -52 -56 -87 -121 -161 -105 -92 -66 -64 -68 -61 -100
0 0 0 0 0 0 0 0 0 0 0 0 0 0 0 0 0 0 0 0 0 0 0 0 0 0 0 0 0 0 0 0 -91 -77 -77 -78 -98 -84 -85 -91 -98 -109 -90 -66 -76 -73 -64 -71 -62
0 0 0 0 0 0 0 0 0 0 0 0 0 0 0 0 0 0 0 0 0 0 0 0 0 0 0 0 0 0 0 0 0 0 -69 -81 -63 -62 -72 -77 -81 -92 -73 -53 -80 -69 -56 -64 -77
0 0 0 0 0 0 0 0 0 0 0 0 0 0 0 0 0 0 0 0 0 0 0 0 0 0 0 0 0 0 0 0 0 0 0 0 -32 -162 -72 -74 -73 -92 -64 -70 -68 -57 -94 -86 -92
0 0 0 0 0 0 0 0 0 0 0 0 0 0 0 0 0 0 0 0 0 0 0 0 0 0 0 0 0 0 0 0 0 0 0 0 0 -283 -158 -88 -114 -94 -85 -69 -84 -67 -48 -93 -56
0 0 0 0 0 0 0 0 0 0 0 0 0 0 0 0 0 0 0 0 0 0 0 0 0 0 0 0 0 0 0 -1 0 0 0 0 0 -245 -168 -104 -100 -109 -91 -101 -85 -86 -56 -68 -102
0 0 0 0 0 0 0 0 0 0 0 0 0 0 0 0 0 0 0 0 0 0 0 0 0 0 0 0 0 0 0 0 0 0 0 0 0 -257 -222 -116 -76 -77 -96 -92 -115 -113 -125 -62 -176
0 0 0 0 0 0 0 0 0 0 0 0 0 0 0 0 0 0 0 0 0 0 0 0 0 0 0 0 0 0 0 0 0 0 0 -275 -241 -195 -219 -159 -79 -80 -105 -104 -123 -139 -119 -83 -99
0 0 0 0 0 0 0 0 0 0 0 0 0 0 0 0 0 0 0 0 0 0 0 0 0 0 0 0 0 0 0 0 0 0 0 -318 -145 -94 -139 -161 -73 -42 -85 -111 -100 -121 -93 -77 -97
0 0 0 0 0 0 0 0 0 0 0 0 0 0 0 0 0 0 0 0 0 0 0 0 0 0 0 0 0 0 0 0 0 0 -259 -209 -125 -156 -111 -147 -117 -47 -70 -94 -108 -128 -104 -107 -68
0 0 0 0 0 0 0 0 0 0 0 0 0 0 0 0 0 0 0 0 0 0 0 0 0 0 0 0 0 0 0 0 0 0 -85 -225 -102 -210 -153 -129 -125 -123 -104 -108 -108 -142 -128 -93 -45
0 0 0 0 0 0 0 0 0 0 0 0 0 0 0 0 0 0 0 0 0 0 0 0 0 0 0 0 0 0 0 0 0 0 0 -72 -90 -192 -165 -122 -110 -118 -117 -125 -130 -98 -111 -128 0
0 0 0 0 0 0 0 0 0 0 0 0 0 -12 0 0 0 0 0 0 0 0 0 0 0 0 0 0 0 0 0 0 0 0 0 0 -110 -179 -233 -132 -103 -70 -61 -64 -71 -128 -147 0 0
0 0 0 0 0 0 0 0 0 0 0 0 0 0 0 0 0 0 0 0 0 0 0 0 0 0 0 0 0 0 0 0 0 0 0 0 0 -178 -207 -138 -85 -30 -24 -52 -78 -151 0 0 0
0 0 0 0 0 0 0 0 0 0 0 0 0 0 0 0 0 0 0 0 0 0 0 0 0 0 0 0 0 0 0 0 0 0 0 0 0 0 -77 -72 -66 -63 -87 -105 -93 0 0 -64 0
0 0 0 0 0 0 0 0 0 0 0 0 0 0 0 0 0 0 0 0 0 0 0 0 0 0 0 0 0 0 0 0 0 0 0 0 0 0 0 -34 -70 -32 -96 -10 0 0 0 -55 -23
Wind_Speed
14 14 15 14 16 16 17 16 16 15 14 12 10 10 13 12 12 14 20 12 15 11 10 10 10 10 10 11 11 11 11 12 13 13 14 14 15 15 15 15 15 16 17 17 18 18 18 19 21
13 14 15 15 15 15 15 15 16 14 13 13 15 15 15 17 13 13 15 12 13 13 12 12 12 10 9 9 9 9 10 11 11 12 13 14 14 14 15 15 15 15 16 16 16 16 16 18 20
14 14 14 15 14 14 14 15 15 15 18 10 15 16 15 14 13 13 12 11 12 11 10 10 10 9 9 8 8 9 9 9 9 10 11 11 12 13 13 14 14 14 15 15 15 15 16 17 18
14 14 16 13 13 12 12 12 17 20 18 20 16 15 16 15 14 13 14 11 12 10 8 8 8 7 7 6 6 6 7 7 7 7 7 8 10 11 11 12 12 13 13 14 14 15 15 16 17
17 15 14 13 11 11 12 13 16 16 16 21 18 20 17 17 17 14 12 10 10 9 9 8 7 6 5 5 5 5 5 5 5 6 6 7 7 8 9 9 10 11 11 12 12 14 15 16 17
14 15 14 12 11 11 11 14 14 17 20 19 19 18 20 19 16 14 11 10 10 9 8 7 5 4 4 3 4 4 4 3 2 4 5 4 5 5 6 7 9 10 9 10 11 12 14 14 15
13 13 12 12 12 12 13 18 17 19 21 22 21 21 19 19 15 14 12 12 10 9 8 7 5 4 3 4 5 5 5 5 5 4 5 5 6 5 5 6 7 8 8 9 10 11 12 13 13
15 14 14 12 12 13 17 17 17 20 19 21 19 20 22 20 16 13 13 12 11 10 9 8 7 7 7 8 7 7 7 7 8 6 6 6 7 8 7 6 7 7 7 8 9 10 11 12 12
15 16 15 14 15 16 18 19 18 20 19 22 22 22 23 21 17 14 15 15 12 12 11 10 9 8 9 9 10 10 11 11 11 10 10 9 10 10 10 9 8 8 9 9 10 11 12 11 11
16 16 15 15 16 17 19 19 21 21 24 23 24 22 22 21 19 18 18 17 14 13 12 12 13 13 14 15 13 12 13 15 15 13 14 12 12 12 13 13 11 10 11 11 12 12 12 12 12
16 16 16 16 17 20 20 21 19 22 23 24 26 25 27 28 23 22 23 23 22 21 20 17 15 15 17 18 20 20 18 17 16 17 16 15 15 16 15 15 16 15 14 15 14 14 13 13 13
19 17 16 18 20 22 22 21 22 22 23 26 26 26 28 27 26 27 25 24 25 26 27 27 23 19 19 20 21 22 22 21 19 18 16 16 17 18 17 15 15 16 16 15 15 12 12 14 14
19 20 20 21 25 24 22 21 22 24 29 28 29 29 29 28 28 24 22 23 24 26 27 27 26 25 24 23 24 23 23 23 21 20 18 16 16 17 16 17 16 16 18 16 11 11 12 12 13
21 23 24 22 25 23 22 21 21 23 29 33 32 32 31 30 28 24 24 25 26 26 27 27 28 28 27 26 27 26 25 24 23 22 20 19 17 18 18 18 16 14 18 16 15 12 12 12 12
22 25 26 20 24 22 22 24 22 25 35 37 38 36 31 30 27 26 25 26 28 28 29 30 30 30 30 30 30 29 29 26 25 25 22 21 21 20 20 19 17 15 19 16 15 14 14 13 13
23 23 25 22 27 25 26 30 24 33 38 39 38 34 29 28 27 26 26 26 28 29 30 30 31 32 33 33 33 32 31 30 29 29 28 26 24 22 21 20 18 17 16 17 13 12 14 14 12
25 29 30 30 27 28 31 36 33 37 39 40 38 31 28 27 28 28 28 28 30 31 32 33 33 34 35 35 35 34 33 32 32 31 31 28 27 26 23 21 19 20 19 21 15 15 15 16 14
32 33 30 33 29 38 38 37 36 39 38 38 33 28 27 28 29 29 29 30 30 32 33 34 35 36 36 36 35 34 33 34 33 32 32 32 31 29 25 22 23 21 22 21 18 20 19 18 15
28 31 35 34 34 40 34 43 44 42 32 30 28 29 31 32 30 30 31 31 32 33 35 36 37 38 37 38 38 36 37 37 35 34 34 34 34 32 29 27 27 23 20 18 20 20 15 19 8
30 35 38 35 34 42 44 47 38 30 30 30 33 32 32 32 33 34 35 35 35 36 36 37 37 37 36 36 36 34 37 33 35 34 35 33 33 35 35 31 30 28 26 21 17 14 18 18 10
33 36 38 40 41 36 40 43 30 31 33 30 30 30 32 34 36 37 37 38 38 39 39 39 39 38 37 37 36 35 35 34 33 37 36 36 35 35 37 37 35 34 29 23 20 15 13 14 13
36 36 36 44 48 50 39 54 38 36 32 31 33 34 35 37 37 37 38 38 39 39 39 39 39 40 38 38 37 36 36 40 38 38 38 38 37 37 37 38 35 32 31 28 24 20 16 15 12
32 38 40 42 44 42 41 45 40 34 39 36 38 37 36 35 35 36 38 38 38 39 40 40 39 40 39 40 39 38 38 39 40 37 38 38 38 37 37 36 35 31 28 26 25 20 17 18 14
39 43 45 38 40 48 35 44 45 39 40 41 37 35 34 34 34 34 36 37 39 39 38 38 37 37 37 38 39 38 39 39 40 38 39 37 37 37 34 31 31 28 27 26 24 21 18 17 19
43 48 52 50 49 53 37 49 47 44 37 35 35 35 32 32 34 34 36 38 39 39 38 36 36 37 36 36 36 36 36 36 36 38 38 38 38 37 35 30 28 28 23 20 18 18 16 15 13
40 37 45 59 60 60 56 51 46 36 32 33 32 32 33 34 34 35 35 36 37 36 36 36 36 36 36 36 36 36 35 35 36 37 37 38 37 37 34 27 23 20 16 16 16 16 14 10 12
38 42 36 46 49 54 47 45 41 33 37 33 33 35 40 35 33 34 34 35 36 36 35 35 36 36 37 37 37 36 37 36 38 39 37 36 35 34 32 24 19 16 17 15 15 15 14 13 10
38 36 43 41 54 59 52 55 51 39 42 43 40 39 34 31 35 32 32 33 34 36 34 32 33 36 36 35 35 35 36 34 34 34 35 34 33 31 31 28 15 13 13 11 11 11 12 14 10
41 39 35 36 39 51 61 52 34 46 42 42 43 38 30 34 35 32 29 30 33 35 34 32 33 36 37 35 36 36 34 33 33 32 32 32 31 29 25 21 12 9 6 7 8 10 9 6 5
31 33 34 43 49 44 45 52 37 31 36 43 42 36 29 31 34 29 26 28 32 34 34 34 33 35 34 36 36 36 30 30 31 30 31 30 29 27 22 22 15 3 3 4 5 5 5 6 13
Wind_Direction
141 145 133 169 146 154 157 161 180 187 198 190 134 147 118 109 157 204 331 53 15 52 85 96 88 84 77 76 68 67 62 55 60 61 61 56 57 55 50 48 52 51 42 38 35 35 29 21 18
115 113 73 118 130 129 143 162 168 175 170 77 47 46 34 330 54 63 48 86 65 87 104 112 113 97 83 71 65 70 71 68 71 73 69 62 62 58 55 53 52 51 45 40 37 40 37 27 19
103 63 157 94 104 124 117 144 176 206 341 81 25 11 30 25 48 46 48 64 49 76 91 104 111 107 100 92 80 81 76 66 71 76 69 67 64 59 57 53 56 50 42 40 39 35 29 22 20
77 90 59 81 87 90 103 54 243 274 330 333 353 4 5 3 17 23 25 48 41 43 59 87 105 99 93 85 74 63 61 52 65 71 71 67 59 55 55 55 51 47 45 40 35 31 26 19 17
28 48 39 35 56 67 56 35 3 3 357 328 335 323 342 346 350 9 30 48 54 67 79 87 97 92 87 71 63 54 47 53 61 51 47 48 57 52 48 51 43 43 42 35 33 27 22 19 16
50 38 23 23 32 50 46 20 18 358 338 344 343 345 325 333 348 358 15 22 28 42 44 43 59 65 58 41 27 19 23 34 47 33 22 36 39 42 46 40 34 28 34 31 27 20 18 17 18
40 36 27 22 18 11 14 353 353 343 336 325 333 332 339 333 345 352 360 0 12 18 25 29 32 35 20 3 356 352 350 350 343 344 347 351 356 1 9 17 21 18 19 18 14 11 9 11 12
25 24 14 9 5 0 353 354 354 345 345 340 345 337 334 338 342 355 353 353 356 356 356 1 5 354 346 340 334 333 330 332 329 326 327 329 331 333 336 342 348 354 358 360 3 2 2 1 5
18 8 5 2 357 352 350 345 350 344 345 336 336 333 329 335 341 342 340 341 342 338 338 338 336 334 331 328 326 322 322 319 315 313 314 314 318 321 322 324 325 329 336 339 342 342 343 349 353
6 2 2 4 356 351 346 346 340 339 331 334 329 331 336 340 335 330 330 330 333 329 325 322 318 317 317 314 314 316 316 314 311 309 307 305 308 311 316 316 314 315 319 323 324 327 331 332 339
5 358 2 355 352 345 340 339 345 339 335 337 332 330 322 321 326 326 322 322 324 323 320 315 307 307 307 307 304 304 307 309 309 306 304 301 303 305 309 311 311 311 312 314 315 317 321 322 325
351 358 354 350 345 339 336 339 336 335 334 333 331 330 326 324 321 319 321 321 321 321 321 320 313 306 303 304 303 302 303 303 303 304 302 298 298 300 301 303 305 305 306 306 307 311 315 315 317
349 346 344 341 333 334 334 333 333 332 329 331 331 331 328 327 325 325 326 327 326 325 326 327 327 320 312 307 305 302 300 300 300 301 300 298 296 295 298 298 299 300 300 297 297 304 309 310 311
344 339 336 338 334 340 339 338 339 341 335 330 335 332 334 331 328 328 327 326 327 327 326 325 326 325 323 318 311 305 301 297 296 296 295 295 294 295 297 298 294 292 294 294 296 298 302 306 307
343 336 336 345 337 338 338 331 332 335 328 327 325 326 332 334 335 329 327 325 324 324 323 322 321 321 321 319 315 312 308 302 297 294 290 287 289 292 293 295 294 288 293 291 294 299 302 306 306
343 345 339 343 338 336 333 321 327 327 326 324 325 330 334 335 336 335 333 331 329 327 324 324 323 320 317 317 315 312 309 306 302 297 295 290 287 286 287 290 289 288 290 288 291 289 295 302 302
343 332 329 327 337 333 330 317 321 323 323 322 324 328 330 333 337 336 334 332 329 326 324 322 322 320 318 316 313 311 310 307 304 300 296 292 289 288 286 281 286 288 287 288 286 289 287 293 300
329 327 328 324 329 322 319 317 322 323 322 322 327 331 333 334 334 335 334 332 330 328 326 324 321 319 318 316 316 313 310 309 308 304 299 295 290 287 283 279 283 285 287 285 287 286 289 297 296
333 329 324 326 328 324 325 320 321 321 328 332 335 334 331 330 333 334 333 332 330 329 327 325 323 321 319 315 311 310 307 306 309 307 302 297 292 287 283 280 278 280 278 277 283 286 286 295 307
335 328 325 328 331 326 322 320 327 335 334 333 329 330 331 331 331 330 330 329 328 326 324 323 322 321 320 319 316 311 308 307 308 310 307 302 295 287 280 278 275 274 274 274 277 266 279 292 279
334 330 328 325 327 327 326 322 325 332 332 335 336 336 335 333 330 329 329 328 326 324 322 320 318 318 317 316 315 312 311 309 310 307 305 301 296 289 281 274 271 267 269 269 266 264 264 276 273
330 335 330 325 324 320 327 315 320 325 328 331 334 334 331 328 329 329 329 329 329 326 325 322 319 315 313 313 313 312 307 304 304 305 301 295 293 288 282 273 270 267 264 263 263 265 263 272 259
334 333 329 324 319 320 321 315 322 324 321 325 327 329 330 330 330 331 331 329 329 329 326 323 320 318 313 306 304 304 301 300 296 305 301 297 293 292 284 276 268 265 262 261 262 263 264 273 270
336 331 328 328 322 316 323 322 320 322 323 322 325 327 330 330 331 331 331 332 332 332 332 331 329 324 318 311 302 300 300 297 294 296 297 295 293 297 291 283 272 265 260 260 262 264 263 267 276
336 334 328 324 323 318 325 322 316 320 327 326 325 327 331 331 331 332 333 332 332 332 332 332 331 329 325 315 309 303 300 299 294 292 291 293 293 297 292 285 271 260 257 257 258 259 262 266 274
335 337 328 320 320 316 317 316 322 328 331 329 327 329 332 330 330 331 333 333 334 333 333 331 331 329 328 320 316 308 301 300 298 298 292 290 295 299 292 286 270 259 256 257 260 258 258 258 267
334 330 331 320 318 316 319 320 325 330 330 329 328 329 326 328 331 329 330 332 330 327 328 328 329 329 330 319 315 308 297 295 294 288 286 288 294 302 285 283 269 259 261 259 258 259 261 265 264
334 331 327 326 322 319 319 318 319 329 329 326 327 328 329 330 333 332 331 330 329 324 325 328 330 331 329 316 310 303 299 290 287 288 283 287 298 290 273 263 266 261 260 253 251 262 274 269 260
330 328 329 327 324 320 319 319 330 324 327 329 328 327 327 328 330 329 330 329 328 325 321 325 324 323 320 311 310 307 295 286 287 284 280 285 289 279 281 269 268 260 250 267 269 273 273 244 198
328 329 332 326 322 319 317 314 325 331 332 331 331 330 328 330 329 331 332 331 330 330 322 317 320 313 308 311 311 307 292 279 284 280 282 285 276 271 275 254 262 267 269 283 282 266 217 186 195